Other Public Products
Issued by NWS Grand Forks, ND

Home | Current Version | Previous Version | Graphics & Text | Print | Product List | Glossary On
Versions: 1 2 3 4 5 6 7 8 9 10 11 12 13 14 15 16 17 18 19 20 21 22 23 24 25 26 27 28 29 30 31 32 33 34 35 36 37 38 39 40 41 42 43 44 45 46 47 48 49 50
000
FPUS83 KFGF 241131
OPUFGF
PRAIRIE TO PINES WEATHER ROUNDUP
NATIONAL WEATHER SERVICE EASTERN NORTH DAKOTA/GRAND FORKS ND
600 AM CDT SUN SEP 24 2017

 **SATELLITE DATA USED TO AUGMENT SKY COVER AT AUTOMATED STATIONS**
 *****  WEATHER ACROSS EASTERN NORTH DAKOTA  *****

CITY           SKY/WX    TMP DP  RH WIND       PRES   REMARKS
GRAND FORKS    RAIN      52  52 100 N16       29.90F
GRAND FORKS AF RAIN      50  50 100 N13       29.93F
GRAND CITY NWS NOT AVBL
BUXTON           N/A     52  52  99 N6          N/A
DEVILS LAKE    LGT RAIN  47  46  97 N16       29.96F
FARGO          RAIN      56  56 100 N7        29.86F
WAHPETON ARPT  CLOUDY    57  55  94 E3        29.86F
$$

 *****  WEATHER ACROSS CENTRAL AND WESTERN NORTH DAKOTA  *****

CITY           SKY/WX    TMP DP  RH WIND       PRES   REMARKS
JAMESTOWN      LGT RAIN  50  48  93 N10G20    29.91S
BISMARCK       LGT RAIN  49  48  97 N7        29.99R
MINOT          LGT RAIN  47  46  97 NW10      30.04S
MINOT AFB      LGT RAIN  46  46  97 N10       30.03F
GARRISON         N/A     45  45 100 N12       30.02F
WILLISTON      LGT RAIN  44  41  89 N12       30.11R
DICKINSON      CLOUDY    44  43  96 N13       30.03R
HETTINGER      LGT RAIN  44  42  93 N9        30.03S FOG
$$

 *****  OTHER OBSERVATIONS NORTHEAST NORTH DAKOTA  *****

CITY           SKY/WX    TMP DP  RH WIND       PRES   REMARKS
WALHALLA       LGT RAIN N/A N/A N/A N15       29.99F
LANGDON        NOT AVBL
CAVALIER       LGT RAIN  50  50 100 N13       29.97F
GRAFTON        NOT AVBL
CANDO          DRIZZLE   46  46 100 N14       30.01F
FORT TOTTEN      N/A     48  47  98 NE7       29.95S
ROLLA          RAIN      46  46 100 N13G18    30.01F
RUGBY          NOT AVBL
 ***** THE ABOVE OBSERVATIONS ARE NON NWS ARE NOT QUALITY
        CONTROLLED AND MAY MIS-REPORT RAIN FOR SNOW...
$$

 *****  OTHER OBSERVATIONS SOUTHEAST NORTH DAKOTA *****

CITY           SKY/WX    TMP DP  RH WIND       PRES   REMARKS
COOPERSTOWN    DRIZZLE   50  50 100 N15       29.92R
VALLEY CITY    NOT AVBL
OAKES          NOT AVBL
GWINNER        CLOUDY    55  55 100 N8        29.87R
SHEYENNE NWR     N/A     55  55 100 NE7       29.95S
BUFFALO          N/A     53  51  93 W9          N/A
WYNDMERE       NOT AVBL
 ***** THE ABOVE OBSERVATIONS ARE NON NWS ARE NOT QUALITY
       CONTROLLED AND MAY MIS-REPORT RAIN FOR SNOW...
$$

  *****  WEATHER ACROSS NORTHERN MINNESOTA  *****

CITY           SKY/WX    TMP DP  RH WIND       PRES   REMARKS
FLAG ISLAND    NOT AVBL
WARROAD        HVY RAIN  55  52  88 NE6       29.93F
ROSEAU         RAIN      54  48  82 N7        29.92F
HALLOCK        LGT RAIN  52  52 100 N13       29.94F
THF RVR FALLS  LGT RAIN  54  54 100 NE9       29.89F
HALSTAD          N/A     55  55 100 N6          N/A
FOSSTON        CLOUDY    55  54  94 CALM      29.88F
BAUDETTE       LGT RAIN  56  56 100 E7        29.92F
WASKISH        DRIZZLE   55  55 100 E5        29.91F
CROOKSTON      LGT RAIN  54  54 100 N9        29.89F
$$
  *****  WEATHER ACROSS CENTRAL AND WEST MINNESOTA  *****

CITY           SKY/WX    TMP DP  RH WIND       PRES   REMARKS
BEMIDJI        CLOUDY    58  58  99 SE5       29.89F
PARK RAPIDS    CLOUDY    62  60  93 SE9       29.87F
WADENA         CLOUDY    61  61 100 SE10      29.87S FOG
DETROIT LAKES  LGT RAIN  61  61 100 S6        29.86R
MOORHEAD       RAIN      55  55 100 N5        29.87F
FERGUS FALLS   CLOUDY    61  61 100 W13       29.88R FOG
ELBOW LAKE     CLOUDY    63  62  97 E6        29.86R
MORRIS MN      NOT AVBL
STAPLES        FOG       59  59 100 SE9       29.89F VSB 3/4
WHEATON        CLOUDY    59  57  94 CALM      29.89S FOG
$$
  *****  WEATHER ELSEWHERE ACROSS MINNESOTA  *****

CITY           SKY/WX    TMP DP  RH WIND       PRES   REMARKS
DULUTH         FOG       63  63 100 SE12      29.96S VSB 3/4
INTRNTL FALLS  CLOUDY    58  57  97 E6        29.94F
ELY            MOCLDY    57  57 100 CALM      29.96R FOG
CLOQUET        CLOUDY    64  61  88 E5        29.95S FOG
BRAINERD       FOG       60  60 100 VRB3      29.91F VSB 1/4
HIBBING        MOCLDY    57  57 100 E3        29.93F FOG
ALEXANDRIA     CLOUDY    61  61 100 SE8       29.89F FOG
SAINT CLOUD    FAIR      60  60 100 SE3       29.91F FOG
MINNEAPOLIS    FAIR      73  64  73 S3        29.94S
$$

  *****  WEATHER ACROSS SOUTH DAKOTA  *****

CITY           SKY/WX    TMP DP  RH WIND       PRES   REMARKS
SIOUX FALLS    CLOUDY    70  65  84 S13       29.86S
BROOKINGS      MOCLDY    62  60  93 SE9       29.86F
WATERTOWN      MOCLDY    60  60 100 SE6       29.85F
HURON          LGT RAIN  57  57 100 S3        29.84F
SISSETON         N/A     61  61 100 SE5       29.85F
ABERDEEN       RAIN      54  54 100 NE8       29.84F
MITCHELL       CLOUDY    57  57 100 CALM      29.87R FOG
PIERRE         LGT RAIN  52  50  93 NW13      29.88S FOG
MOBRIDGE       LGT RAIN  51  49  92 N16       29.89F
RAPID CITY     NOT AVBL
$$

  *****  SOME WEATHER IN NEARBY STATES *****

CITY           SKY/WX    TMP DP  RH WIND       PRES   REMARKS
GLASGOW MT     CLOUDY    46  41  82 CALM      30.12S
GREAT FALLS MT FAIR      32  29  88 SW7       30.09S
CHEYENNE WY    CLOUDY    44  42  93 CALM      29.98R
SCOTTSBLUFF NE CLOUDY    47  43  86 CALM      30.00R
OMAHA NE       FAIR      70  64  81 SE8       29.92R
DES MOINES IA  FAIR      72  63  73 SE6       29.96S
DAVENPORT IA   FAIR      63  61  93 SE5       30.06S
CHICAGO IL     FAIR      71  63  75 S3        30.07S
EAU CLAIRE WI  FAIR      67  62  84 CALM      29.99R
LA CROSSE WI   FAIR      71  66  84 S6        30.01R
$$

  *****  SOME NATIONAL WEATHER *****

CITY           SKY/WX    TMP DP  RH WIND       PRES   REMARKS
LA GUARDIA NY  FAIR      71  61  70 CALM      30.06R
RALEIGH NC     MOCLDY    65  63  93 N3        30.08S
ATLANTA GA     MOCLDY    69  64  84 NE6       30.07R
NEW ORLEANS LA FAIR      77  72  84 NE6       29.91F
OKLAHOMA CITY  FAIR      70  65  84 S7        29.90S
ALBUQUERQUE NM MOCLDY    55  50  83 S5        29.93S
SALT LAKE CITY MOCLDY    47  44  90 CALM      29.89S
LOS ANGELES CA FAIR      62  55  77 VRB3      29.84F
BOISE ID       FAIR      38  33  82 S3        30.02S
SEATTLE WA     FAIR      52  47  83 CALM      30.14S
$$

*** WEATHER ACROSS MANITOBA...SASKATCHEWAN AND ONTARIO ***
                ***ONTARIO***

CITY           SKY/WX    TMP DP  RH WIND       PRES   REMARKS
GERALDTON      TSTM      59  59 100 NE8       30.06  VSB 3/4
THUNDER BAY    CLOUDY    64  64 100 SE6       29.99F
SIOUX LOOKOUT  DRIZZLE   55  55 100 NE3       29.97F FOG
TORONTO        PTCLDY    72  64  78 NW6       30.14R
BIG TROUT LK   LGT RAIN  46  46 100 NE3       30.13F FOG
PICKLE LAKE    DRZL/FOG  52  50  93 E8        30.07  VSB 1
DRYDEN         LGT RAIN  55  55 100 E7        29.95F
KENORA         LGT RAIN  54  54 100 NE6       29.95F FOG
$$
                *** MANITOBA***

CITY           SKY/WX    TMP DP  RH WIND       PRES   REMARKS
BRANDON        LGT RAIN  46  46 100 N7        30.06F
DAUPHIN        LGT RAIN  46  46 100 N5        30.10S
ISLAND LAKE    CLOUDY    43  41  93 NE6       30.18R
PILOT MOUND      N/A     46  45  93 N10         N/A
THE PAS        DRIZZLE   45  43  93 E5        30.16S
THOMPSON       LGT RAIN  39  37  93 N3        30.23S
WINNIPEG       LGT RAIN  50  48  93 N10       30.02R
LYNN LAKE      CLOUDY    37  37 100 SE6       30.21F
CHURCHILL      LGT RAIN  36  34  93 SW2       30.29R
GILLAM         CLOUDY    39  37  93 NE9       30.25F
$$
                ***SASKATCHEWAN***

CITY           SKY/WX    TMP DP  RH WIND       PRES   REMARKS
ESTEVAN        LGT RAIN  43  43 100 NW8       30.11S
KINDERSLEY     PTCLDY    34  32  93 E3        30.11S
LLOYDMINSTER   CLOUDY    41  37  87 S6        30.08F
PRINCE ALBERT  CLOUDY    39  37  93 CALM      30.16S
REGINA         MOCLDY    34  34 100 NW3       30.15R
YORKTON        CLOUDY    43  41  93 NW5       30.14R



USA.gov is the U.S. government's official web portal to all federal, state and local government web resources and services.